User: anonymous   Login
Location: Caltech
(34.1382°N, 118.1253°W)
Time: 23:48:36
(UTC-07:00)
Language:

ASTRO E2 - Orbit

View from above orbital plane
View from above orbital plane
View from above satellite
View from above satellite

Ground track
Ground track

The orbit data is extracted from the following two-line orbital elements,

1 28773U 05025A   18114.32745563 +.00000980 +00000-0 +44694-4 0  9997
2 28773 031.3828 077.6465 0004818 232.2213 127.7998 15.16482067704638
Epoch (UTC): 24 April 2018 07:51:32
Eccentricity: 0.0004818
inclination: 31.3828°
perigee height: 513 km
apogee height: 520 km
right ascension of ascending node: 77.6465°
argument of perigee: 232.2213°
revolutions per day: 15.16482067
mean anomaly at epoch: 127.7998°
orbit number at epoch: 70463

The dashed part of the orbit path shows where the satellite is in the earth's shadow,  

DLR